Location: Bailleul
(50.3375°N, 2.8513°E)
Time: 16:23:30
(UTC+00:00)

Cosmos 1634 Rocket - Pass Details

Date: 19 April 2021
Orbit: 958 x 993 km, 82.9° (Epoch: 06 May)

Event Time Altitude Azimuth Distance (km) Brightness Sun altitude
Rises 20:24:07 0° 198° (SSW) 3,682 6.8 -14.0°
Reaches altitude 10° 20:26:40 10° 202° (SSW) 2,733 6.2 -14.3°
Maximum altitude 20:32:52 63° 283° (WNW) 1,087 4.5 -15.1°
Drops below altitude 10° 20:39:04 10° 5° (N) 2,727 6.8 -15.8°
Sets 20:41:37 0° 9° (N) 3,674 7.5 -16.1°
